MPEC 2002-T22 : 2002 TB58

The following Minor Planet Electronic Circular may be linked-to from your own Web pages, but must not otherwise be redistributed electronically.


Read MPEC 2002-T21 Read MPEC 2002-T23


M.P.E.C. 2002-T22                                Issued 2002 Oct. 5, 15:13 UT

     The Minor Planet Electronic Circulars contain information on unusual
         minor planets and routine data on comets.  They are published
   on behalf of Commission 20 of the International Astronomical Union by the
          Minor Planet Center, Smithsonian Astrophysical Observatory,
                          Cambridge, MA 02138, U.S.A.

             Prepared using the Tamkin Foundation Computer Network

                              MPC@CFA.HARVARD.EDU
          URL http://cfa-www.harvard.edu/iau/mpc.html  ISSN 1523-6714

                                   2002 TB58

Observations:
     K02T58B  C2002 09 05.44372 04 41 52.06 +23 44 08.3          20.2        704
     K02T58B  C2002 09 05.45803 04 41 54.16 +23 44 02.8          19.7        704
     K02T58B  C2002 09 05.47240 04 41 56.18 +23 43 56.8          20.0        704
     K02T58B* C2002 10 03.41814 05 53 03.78 +17 19 07.6          19.2        704
     K02T58B  C2002 10 03.43386 05 53 06.24 +17 18 47.2          18.7        704
     K02T58B  C2002 10 03.44893 05 53 08.53 +17 18 28.0          18.9        704
     K02T58B  C2002 10 03.46438 05 53 11.08 +17 18 07.8          18.7        704
     K02T58B  C2002 10 04.12992 05 54 58.42 +17 03 18.2          18.0 R      J95
     K02T58B  C2002 10 04.13177 05 54 58.74 +17 03 15.3          18.0 R      J95
     K02T58B  C2002 10 04.13264 05 54 58.93 +17 03 14.1          18.0 R      J95
     K02T58B  C2002 10 04.13351 05 54 59.05 +17 03 13.1          17.9 R      J95
     K02T58B  C2002 10 04.13437 05 54 59.16 +17 03 12.0          17.7 R      J95
     K02T58B  C2002 10 04.13524 05 54 59.35 +17 03 10.5          17.6 R      J95
     K02T58B  C2002 10 04.39293 05 55 41.20 +16 57 25.5          19.3 R      651
     K02T58B  C2002 10 04.39364 05 55 41.22 +16 57 23.3          18.5        704
     K02T58B  C2002 10 04.39505 05 55 41.54 +16 57 22.6          19.1 R      651
     K02T58B  C2002 10 04.39659 05 55 41.77 +16 57 20.1          19.2 R      651
     K02T58B  C2002 10 04.40276 05 55 42.65 +16 57 11.0          18.6        704
     K02T58B  C2002 10 04.41828 05 55 45.16 +16 56 50.1          18.8        704
     K02T58B  C2002 10 04.42431 05 55 46.13 +16 56 41.6          18.6        704
     K02T58B  C2002 10 04.43391 05 55 47.61 +16 56 28.3          18.6        704
     K02T58B  C2002 10 04.43933 05 55 48.46 +16 56 21.6          19.1        704
     K02T58B  C2002 10 04.44628 05 55 49.64 +16 56 12.0                      670
     K02T58B  C2002 10 04.44949 05 55 50.11 +16 56 07.9          18.7        704
     K02T58B  C2002 10 04.45454 05 55 50.92 +16 56 00.9          18.0 R      670
     K02T58B  C2002 10 04.46539 05 55 52.66 +16 55 46.8          19.3        704
     K02T58B  C2002 10 04.48238 05 55 55.47 +16 55 22.9                      670
     K02T58B  C2002 10 05.07440 05 57 31.36 +16 41 47.1          17.2 R      246
     K02T58B  C2002 10 05.07523 05 57 31.49 +16 41 45.6                      246
     K02T58B  C2002 10 05.16325 05 57 45.64 +16 39 43.9          18.0 R      J95
     K02T58B  C2002 10 05.16412 05 57 45.76 +16 39 42.7          17.8 R      J95
     K02T58B  C2002 10 05.16586 05 57 46.04 +16 39 40.0          17.8 R      J95
     K02T58B  C2002 10 05.16672 05 57 46.18 +16 39 39.2          17.5 R      J95
     K02T58B  C2002 10 05.35492 05 58 16.91 +16 35 17.0          17.6 R      649
     K02T58B  C2002 10 05.35906 05 58 17.58 +16 35 11.6          17.7 R      649
     K02T58B  C2002 10 05.36356 05 58 18.29 +16 35 05.4          17.7 R      649
     K02T58B  C2002 10 05.44726 05 58 31.90 +16 33 08.7                      670
     K02T58B  C2002 10 05.45889 05 58 33.50 +16 32 51.4          18.0 R      734
     K02T58B  C2002 10 05.46227 05 58 34.07 +16 32 47.2                      734
     K02T58B  C2002 10 05.48537 05 58 37.85 +16 32 15.8          17.7 R      448
     K02T58B  C2002 10 05.49198 05 58 38.90 +16 32 06.5          18.0 R      448
     K02T58B  C2002 10 05.49868 05 58 39.99 +16 31 57.3          18.1 R      448
     K02T58B  C2002 10 05.51082 05 58 41.98 +16 31 39.3                      670

Observer details:
246 Klet Observatory-KLENOT.  Observers J. Ticha, M. Tichy, M. Kocer.
    1.06-m KLENOT telescope + CCD.
448 Desert Moon Observatory.  Observer B. Stevens.  0.30-m f/6.3
    Schmidt-Cassegrain + CCD.
649 Powell Observatory, Louisburg.  Observers K. Smalley, R. Trentman.
    0.75-m Newtonian + CCD.
651 Grasslands Observatory, Tucson.  Observer J. E. McGaha.  0.62-m f/5.1
    reflector + CCD.
670 Camarillo.  Observer J. E. Rogers.  0.30-m f/6.7 Helin Telescope + CCD.
704 Lincoln Laboratory ETS, New Mexico.  Observers M. Blythe, F. Shelly,
    M. Bezpalko, R. Huber, L. Manguso, S. Adams, D. Torres, T. Brothers,
    S. Partridge.  Measurers J. Stuart, R. Sayer, J. B. Evans, H. Viggh.  1.0-m
    f/2.15 reflector + CCD.
734 Farpoint Observatory.  Observer G. Hug.  Measurer R. Valentine.  0.30-m
    Schmidt-Cassegrain + CCD.
J95 Great Shefford.  Observer P. Birtwhistle.  0.3-m Schmidt-Cassegrain + CCD.

Orbital elements:
2002 TB58
Epoch 2002 Nov. 22.0 TT = JDT 2452600.5                 MPC
M 349.47780              (2000.0)            P               Q
n   0.23115354     Peri.  266.79698     -0.55133968     -0.79347821
a   2.6294748      Node   220.40931     +0.83114273     -0.54917037
e   0.5689207      Incl.   23.42563     -0.07229328     -0.26230561
P   4.26           H   16.0           G   0.15           U   7
Residuals in seconds of arc
020905 704  0.4-  0.4-    021004 651  0.8+  0.8+    021005 J95  0.2-  0.4+
020905 704  0.4+  0.2+    021004 651  0.5+  0.3+    021005 J95  0.1-  0.1+
020905 704  0.0   0.2+    021004 704  0.4-  0.2-    021005 J95  0.1-  0.5+
021003 704  0.7+  0.3-    021004 704  0.1+  0.2-    021005 649  0.2-  0.3-
021003 704  0.3+  0.1-    021004 704  0.3+  0.5-    021005 649  0.1-  0.1+
021003 704  1.1-  0.5+    021004 704  0.4-  0.8-    021005 649  0.2-  0.1+
021003 704  0.5+  0.6+    021004 704  0.5-  0.2-    021005 670  0.5+  0.1+
021004 J95  0.8-  0.1+    021004 670  0.8-  0.1-    021005 734  0.4-  0.6-
021004 J95  0.4-  0.3-    021004 704  0.0   0.1-    021005 734  0.0   0.0
021004 J95  0.3+  0.3-    021004 670  1.3-  0.0     021005 448  0.1+  0.1+
021004 J95  0.1+  0.1-    021004 704  0.4+  0.4+    021005 448  0.1+  0.1+
021004 J95  0.3-  0.1-    021004 670  0.5+  0.3-    021005 448  0.4+  0.3+
021004 J95  0.4+  0.4-    021005 246  0.4+  0.0     021005 670  0.3-  0.3-
021004 651  0.7+  0.8+    021005 246  0.3+  0.4-
021004 704  0.1-  0.2-    021005 J95  0.1+  0.4+

Ephemeris:
2002 TB58                a,e,i = 2.63, 0.57, 23                  q = 1.1335
Date    TT    R. A. (2000) Decl.     Delta      r     Elong.  Phase     V
2002 10 03    05 51.93   +17 28.3    1.035    1.576   101.5    38.5    18.6
2002 10 13    06 19.25   +13 14.4    0.905    1.505   104.5    39.9    18.3
2002 10 23    06 47.66   +07 36.7    0.792    1.437   106.5    41.6    17.9
2002 11 02    07 17.31   +00 26.5    0.699    1.372   107.2    43.7    17.6
2002 11 12    07 48.31   -08 10.7    0.629    1.312   106.1    46.5    17.3
2002 11 22    08 20.94   -17 45.3    0.584    1.258   103.4    49.8    17.2
2002 12 02    08 55.48   -27 25.7    0.561    1.212    99.4    53.4    17.1
2002 12 12    09 32.08   -36 15.0    0.557    1.175    95.3    56.6    17.1
2002 12 22    10 10.77   -43 33.4    0.565    1.149    91.7    58.8    17.2
2003 01 01    10 51.03   -49 06.1    0.579    1.136    89.4    60.0    17.2
2003 01 11    11 31.54   -52 54.8    0.592    1.135    88.5    60.0    17.3
2003 01 21    12 10.39   -55 09.1    0.602    1.147    89.3    59.1    17.3
2003 01 31    12 45.19   -56 01.8    0.605    1.172    91.7    57.2    17.3
2003 02 10    13 13.63   -55 41.7    0.601    1.207    95.9    54.4    17.3
2003 02 20    13 34.19   -54 13.7    0.592    1.253   101.9    50.5    17.2
2003 03 02    13 46.20   -51 37.2    0.578    1.306   109.9    45.5    17.1
2003 03 12    13 50.05   -47 44.3    0.565    1.366   119.9    39.1    17.0
2003 03 22    13 47.51   -42 29.9    0.558    1.430   131.8    31.3    16.8
2003 04 01    13 41.05   -36 02.1    0.564    1.498   145.3    22.3    16.7
2003 04 11    13 33.50   -28 53.2    0.592    1.568   158.8    13.4    16.6
2003 04 21    13 27.15   -21 55.3    0.644    1.640   168.0     7.3    16.7
2003 05 01    13 23.23   -15 54.0    0.723    1.713   163.6     9.5    17.1
2003 05 11    13 22.19   -11 11.6    0.826    1.786   153.2    14.8    17.7
2003 05 21    13 23.93   -07 48.5    0.950    1.860   142.8    19.2    18.2
2003 05 31    13 28.04   -05 32.7    1.092    1.933   133.2    22.5    18.7
2003 06 10    13 34.16   -04 09.9    1.247    2.005   124.5    24.7    19.1
2003 06 20    13 41.89   -03 27.0    1.414    2.076   116.4    26.0    19.5
2003 06 30    13 50.92   -03 13.3    1.589    2.147   109.0    26.6    19.9
2003 07 10    14 01.01   -03 20.8    1.771    2.216   101.9    26.7    20.2
2003 07 20    14 11.95   -03 43.1    1.957    2.284    95.1    26.3    20.4
2003 07 30    14 23.59   -04 15.6    2.145    2.351    88.6    25.6    20.7
2003 08 09    14 35.83   -04 54.9    2.334    2.417    82.3    24.6    20.9

Brian G. Marsden             (C) Copyright 2002 MPC           M.P.E.C. 2002-T22

Read MPEC 2002-T21 Read MPEC 2002-T23


Our Web policy. Index to the CBAT/MPC/ICQ pages.

MPC